Satellite: NANOSALD
Catalog number: 37361
Epoch time:      11205.21512859
Element set:    0293
Inclination:      071.9498 deg
RA of node:       308.5773 deg
Eccentricity:    0.0017142
Arg of perigee:   072.4205 deg
Mean anomaly:     287.8812 deg
Mean motion:   15.11792873 rev/day
Decay rate:    2.82048e-03 rev/day^2
Epoch rev:           02769
Checksum:              316

Satellite: FO-70
Catalog number: 37380
Epoch time:      11208.45474935
Element set:    0227
Inclination:      071.9736 deg
RA of node:       310.6330 deg
Eccentricity:    0.0018440
Arg of perigee:   207.8270 deg
Mean anomaly:     152.1907 deg
Mean motion:   14.76381866 rev/day
Decay rate:       1.66e-06 rev/day^2
Epoch rev:           03680
Checksum:              299

/EX
SB KEPS @ AMSAT  $ORB11209.W
Orbital Elements  11209.WEATHER

HR AMSAT ORBITAL ELEMENTS FOR WEATHER SATELLITES
FROM WA5QGD FORT WORTH,TX July 28, 2011
Send Subscribe/unsubscribe to KEPS at http://www.amsat.org/mailman/listinfo/kep
BID: ORB11209.W
TO ALL RADIO AMATEURS BT

Satellite: NOAA-10
Catalog number: 16969
Epoch time:      11208.72420676
Element set:    5817
Inclination:      098.6175 deg
RA of node:       237.9572 deg
Eccentricity:    0.0013105
Arg of perigee:   105.7959 deg
Mean anomaly:     254.4637 deg
Mean motion:   14.27469508 rev/day
Decay rate:       -8.6e-07 rev/day^2
Epoch rev:           29343
Checksum:              340

Satellite: NOAA-11
Catalog number: 19531
Epoch time:      11208.86164493
Element set:    0581
Inclination:      098.7516 deg
RA of node:       295.5554 deg
Eccentricity:    0.0011976
Arg of perigee:   073.5117 deg
Mean anomaly:     286.7365 deg
Mean motion:   14.14921605 rev/day
Decay rate:       2.67e-06 rev/day^2
Epoch rev:           17850
Checksum:              323

Satellite: NOAA-12
Catalog number: 21263
Epoch time:      11208.93114130
Element set:    0092
Inclination:      098.7508 deg
RA of node:       226.7034 deg
Eccentricity:    0.0013436
Arg of perigee:   068.9469 deg
Mean anomaly:     291.3146 deg
Mean motion:   14.25727289 rev/day
Decay rate:        5.4e-07 rev/day^2
Epoch rev:           05021
Checksum:              283

Satellite: MET-3/5
Catalog number: 21655
Epoch time:      11208.85305792
Element set:     168
Inclination:      082.5563 deg
RA of node:       022.0359 deg
Eccentricity:    0.0014618
Arg of perigee:   058.4444 deg
Mean anomaly:     301.8116 deg
Mean motion:   13.17027408 rev/day
Decay rate:        5.1e-07 rev/day^2
Epoch rev:           95907
Checksum:              292

Satellite: MET-2/21
Catalog number: 22782
Epoch time:      11208.75157120
Element set:    0161
Inclination:      082.5493 deg
RA of node:       290.6978 deg
Eccentricity:    0.0022210
Arg of perigee:   349.3934 deg
Mean anomaly:     010.6739 deg
Mean motion:   13.83660428 rev/day
Decay rate:      -1.11e-06 rev/day^2
Epoch rev:           90416
Checksum:              289

Satellite: OKEAN-4
Catalog number: 23317
Epoch time:      11208.91501376
Element set:    0687
Inclination:      082.5407 deg
RA of node:       335.1036 deg
Eccentricity:    0.0021765
Arg of perigee:   349.6474 deg
Mean anomaly:     010.4288 deg
Mean motion:   14.83112543 rev/day
Decay rate:       2.83e-06 rev/day^2
Epoch rev:           90658
Checksum:              296

Satellite: NOAA-14
Catalog number: 23455
Epoch time:      11208.94052980
Element set:    0580
Inclination:      098.8503 deg
RA of node:       291.1698 deg
Eccentricity:    0.0009492
Arg of perigee:   159.1106 deg
Mean anomaly:     201.0452 deg
Mean motion:   14.13825862 rev/day
Decay rate:       -3.0e-07 rev/day^2
Epoch rev:           85483
Checksum:              299

Satellite: NOAA-15
Catalog number: 25338
Epoch time:      11208.75151834
Element set:    0899
Inclination:      098.6570 deg
RA of node:       194.3428 deg
Eccentricity:    0.0010373
Arg of perigee:   340.2987 deg
Mean anomaly:     019.7758 deg
Mean motion:   14.24935155 rev/day
Decay rate:        9.0e-08 rev/day^2
Epoch rev:           68650
Checksum:              334

Satellite: RESURS
Catalog number: 25394
Epoch time:      11208.92458661
Element set:    0864
Inclination:      098.3021 deg
RA of node:       209.7062 deg
Eccentricity:    0.0002297
Arg of perigee:   093.9787 deg
Mean anomaly:     266.1657 deg
Mean motion:   14.24235221 rev/day
Decay rate:       -4.6e-07 rev/day^2
Epoch rev:           67810
Checksum:              308

Satellite: FENGYUN1
Catalog number: 25730
Epoch time:      11208.87056271
Element set:    0396
Inclination:      098.8189 deg
RA of node:       169.1736 deg
Eccentricity:    0.0022084
Arg of perigee:   197.9011 deg
Mean anomaly:     162.1400 deg
Mean motion:   14.08707561 rev/day
Decay rate:       7.68e-06 rev/day^2
Epoch rev:           62879
Checksum:              319

Satellite: OKEAN-0
Catalog number: 25860
Epoch time:      11208.96538036
Element set:    0373
Inclination:      097.8879 deg
RA of node:       174.2960 deg
Eccentricity:    0.0000771
Arg of perigee:   104.8363 deg
Mean anomaly:     255.2927 deg
Mean motion:   14.73808709 rev/day
Decay rate:       1.70e-06 rev/day^2
Epoch rev:           64666
Checksum:              328

